Simultaneous Nadir Overpasses (SNOs) Predictions

Prediction of SNOs between AQUA and LANDSAT-8 Satellite Orbit:

Table of predicted SNOs for the next 14.0 days since TLE Epoch: 5/24/2025
Index Date (AQUA) Time (AQUA) Lat,Lon (AQUA) SZA (AQUA ) Date (LANDSAT-8) Time (LANDSAT-8) Lat,Lon (LANDSAT-8) SZA (LANDSAT-8 ) Distance(km) Time Diff (sec)
1 05/26/2025 09:38:11 -74.99,-137.40 126.14 05/26/2025 09:37:02 -74.96,-138.98 126.24 45.60 69
2 05/26/2025 10:27:35 75.24, 29.59 54.08 05/26/2025 10:26:23 75.19, 29.28 54.01 10.63 72
3 05/26/2025 11:16:53 -75.28,-162.84 125.89 05/26/2025 11:15:49 -75.26,-162.88 125.92 2.37 64
4 05/26/2025 12:06:12 75.28, 4.83 54.11 05/26/2025 12:05:14 75.29, 4.85 54.11 1.50 58
5 05/26/2025 12:55:29 -75.27, 172.54 125.91 05/26/2025 12:54:42 -75.27, 172.41 125.93 3.67 47
6 05/26/2025 13:44:49 75.32, -19.92 54.13 05/26/2025 13:44:07 75.30, -19.86 54.10 2.92 42
7 05/26/2025 14:34:06 -75.31, 147.78 125.89 05/26/2025 14:33:34 -75.32, 147.84 125.88 2.15 32
8 05/26/2025 15:23:25 75.31, -44.54 54.11 05/26/2025 15:23:00 75.30, -44.57 54.10 1.02 25
9 05/26/2025 16:12:42 -75.30, 123.16 125.91 05/26/2025 16:12:27 -75.33, 123.13 125.89 3.30 15
10 05/26/2025 17:02:01 75.30, -69.16 54.09 05/26/2025 17:01:53 75.31, -69.28 54.09 3.54 8
11 05/26/2025 17:51:19 -75.34, 98.41 125.89 05/26/2025 17:51:20 -75.33, 98.42 125.89 0.78 1
12 05/26/2025 18:40:38 75.34, -93.92 54.11 05/26/2025 18:40:46 75.31, -93.99 54.08 3.34 8
13 05/26/2025 19:29:55 -75.33, 73.79 125.91 05/26/2025 19:30:13 -75.34, 73.72 125.90 2.35 18
14 05/26/2025 20:19:15 75.37,-118.68 54.13 05/26/2025 20:19:38 75.37,-118.56 54.13 3.54 23
15 05/26/2025 21:08:32 -75.36, 49.03 125.89 05/26/2025 21:09:06 -75.34, 49.01 125.91 2.74 34
16 05/26/2025 21:57:51 75.36,-143.30 54.11 05/26/2025 21:58:31 75.37,-143.27 54.13 1.13 40
17 05/26/2025 22:47:08 -75.35, 24.41 125.91 05/26/2025 22:47:59 -75.34, 24.30 125.91 3.33 51
18 05/26/2025 23:36:27 75.35,-167.92 54.09 05/26/2025 23:37:24 75.37,-167.97 54.12 2.94 57
19 05/27/2025 00:25:45 -75.39, -0.35 125.88 05/27/2025 00:26:51 -75.40, -0.27 125.86 2.28 66
20 05/27/2025 01:15:05 75.44, 167.18 54.16 05/27/2025 01:16:16 75.43, 167.46 54.17 7.81 71
21 05/27/2025 02:04:30 -75.82, -26.28 125.50 05/27/2025 02:05:37 -75.75, -23.98 125.49 63.13 67



Historial Predications of SNOs between AQUA and LANDSAT-8
